Crookston, MN

8:15 AM CDT on September 26, 2017 (GMT -0500)
Crookston Municipal-Kirkwood

Weather History for KCKN - April, 2014

Change the Weather History Date:

Saturday, April 5, 2014

  Actual Average Record
Temperature  
Mean Temperature 32 °F -  
Max Temperature 44 °F 45 °F 91 °F (1999)
Min Temperature 21 °F 27 °F 10 °F (2007)
Degree Days  
Heating Degree Days 32    
Moisture  
Dew Point 30 °F    
Average Humidity 86    
Maximum Humidity 100    
Minimum Humidity 75    
Precipitation  
Precipitation 0.00 in - - ()
Sea Level Pressure  
Sea Level Pressure 29.89 in    
Wind  
Wind Speed 10 mph (South)    
Max Wind Speed 20 mph    
Max Gust Speed 22 mph    
Visibility 10 miles    
Events      
Averages and records for this station are not official NWS values.
T = Trace of Precipitation, MM = Missing Value Source: NWS Daily Summary

Daily Weather History Graph

Daily Weather History Graph

Search for Another Location

Airport or City:

Trip Planner

Search our weather history database for the weather conditions in past years. The results will help you decide how hot, cold, wet, or windy it might be!

Date:

Astronomy

Apr. 05, 2014 Rise Set
Actual Time 6:56 AM CDT 8:02 PM CDT
Civil Twilight 6:25 AM CDT 8:34 PM CDT
Nautical Twilight 5:47 AM CDT 9:12 PM CDT
Astronomical Twilight 5:06 AM CDT 9:52 PM CDT
Moon 10:50 AM CDT (4/5) 1:28 AM CDT (4/5)
Length of Visible Light 14h 08m
Length of Day
13h 05m
Waxing Crescent, 34% of the Moon is Illuminated
Apr 5
Waxing Crescent
Apr 7
First Quarter
Apr 15
Full
Apr 22
Last Quarter
Apr 29
New

Hourly Weather History & Observations

Time (CDT) Temp. Windchill Dew Point Humidity Pressure Visibility Wind Dir Wind Speed Gust Speed Precip Events Conditions
12:14 AM 21.2 °F 11.7 °F 21.2 °F 100% 30.01 in 7.0 mi SSE 8.1 mph - N/A   Clear
12:35 AM 23.0 °F 13.9 °F 21.2 °F 93% 30.01 in 7.0 mi South 8.1 mph - N/A   Clear
12:54 AM 24.8 °F 15.3 °F 24.8 °F 100% 30.00 in 10.0 mi South 9.2 mph - N/A   Clear
1:14 AM 24.8 °F 15.3 °F 24.8 °F 100% 30.00 in 10.0 mi South 9.2 mph - N/A   Clear
1:35 AM 26.6 °F 17.5 °F 24.8 °F 93% 29.99 in 10.0 mi South 9.2 mph - N/A   Clear
1:54 AM 24.8 °F 16.1 °F 23.0 °F 93% 29.99 in 10.0 mi South 8.1 mph - N/A   Clear
2:14 AM 24.8 °F 15.3 °F 24.8 °F 100% 29.99 in 10.0 mi South 9.2 mph - N/A   Clear
2:35 AM 26.6 °F 16.8 °F 24.8 °F 93% 29.99 in 10.0 mi South 10.4 mph - N/A   Clear
2:54 AM 26.6 °F 17.5 °F 24.8 °F 93% 29.98 in 10.0 mi South 9.2 mph - N/A   Clear
3:14 AM 26.6 °F 16.8 °F 24.8 °F 93% 29.98 in 10.0 mi South 10.4 mph - N/A   Clear
3:35 AM 26.6 °F 16.8 °F 24.8 °F 93% 29.97 in 10.0 mi South 10.4 mph - N/A   Clear
3:54 AM 26.6 °F 16.8 °F 24.8 °F 93% 29.97 in 10.0 mi South 10.4 mph - N/A   Clear
4:14 AM 26.6 °F 16.8 °F 24.8 °F 93% 29.96 in 10.0 mi South 10.4 mph - N/A   Clear
4:35 AM 26.6 °F 16.8 °F 24.8 °F 93% 29.96 in 10.0 mi South 10.4 mph - N/A   Clear
4:54 AM 26.6 °F 16.2 °F 24.8 °F 93% 29.95 in 10.0 mi South 11.5 mph - N/A   Clear
5:14 AM 26.6 °F 18.2 °F 24.8 °F 93% 29.96 in 10.0 mi South 8.1 mph - N/A   Clear
5:35 AM 26.6 °F 16.2 °F 24.8 °F 93% 29.95 in 10.0 mi South 11.5 mph - N/A   Clear
5:54 AM 28.4 °F 18.0 °F 26.6 °F 93% 29.94 in 10.0 mi South 12.7 mph - N/A   Scattered Clouds
6:15 AM 28.4 °F 17.5 °F 26.6 °F 93% 29.93 in 10.0 mi South 13.8 mph - N/A   Scattered Clouds
6:35 AM 28.4 °F 17.0 °F 26.6 °F 93% 29.92 in 10.0 mi South 15.0 mph - N/A   Mostly Cloudy
6:54 AM 28.4 °F 16.2 °F 26.6 °F 93% 29.92 in 10.0 mi South 17.3 mph - N/A   Mostly Cloudy
7:35 AM 28.4 °F 16.6 °F 26.6 °F 93% 29.92 in 10.0 mi South 16.1 mph - N/A   Overcast
7:54 AM 28.4 °F 17.0 °F 26.6 °F 93% 29.92 in 10.0 mi South 15.0 mph - N/A   Mostly Cloudy
8:15 AM 30.2 °F 18.9 °F 26.6 °F 86% 29.91 in 10.0 mi South 16.1 mph - N/A   Scattered Clouds
8:35 AM 30.2 °F 18.5 °F 26.6 °F 86% 29.90 in 10.0 mi South 17.3 mph - N/A   Mostly Cloudy
8:54 AM 30.2 °F 18.5 °F 26.6 °F 86% 29.89 in 10.0 mi South 17.3 mph - N/A   Mostly Cloudy
9:15 AM 33.8 °F 23.2 °F 28.4 °F 81% 29.88 in 10.0 mi South 17.3 mph - N/A   Scattered Clouds
9:34 AM 33.8 °F 22.5 °F 28.4 °F 81% 29.88 in 10.0 mi South 19.6 mph - N/A   Scattered Clouds
9:54 AM 33.8 °F 23.5 °F 28.4 °F 81% 29.88 in 10.0 mi South 16.1 mph - N/A   Scattered Clouds
10:15 AM 35.6 °F 25.9 °F 30.2 °F 81% 29.87 in 10.0 mi South 16.1 mph 19.6 mph N/A   Scattered Clouds
10:34 AM 35.6 °F 25.2 °F 30.2 °F 81% 29.87 in 10.0 mi South 18.4 mph 21.9 mph N/A   Scattered Clouds
10:54 AM 35.6 °F 26.6 °F 30.2 °F 81% 29.87 in 10.0 mi SSW 13.8 mph - N/A   Scattered Clouds
11:15 AM 35.6 °F 26.6 °F 30.2 °F 81% 29.89 in 10.0 mi SW 13.8 mph - N/A   Scattered Clouds
11:34 AM 37.4 °F 29.8 °F 30.2 °F 75% 29.89 in 10.0 mi SSW 11.5 mph - N/A   Mostly Cloudy
11:54 AM 37.4 °F 28.2 °F 30.2 °F 75% 29.88 in 10.0 mi SSW 16.1 mph - N/A   Scattered Clouds
12:15 PM 37.4 °F 28.9 °F 32.0 °F 81% 29.88 in 10.0 mi SSW 13.8 mph - N/A   Scattered Clouds
12:34 PM 37.4 °F 30.3 °F 33.8 °F 87% 29.87 in 10.0 mi SSW 10.4 mph - N/A   Scattered Clouds
12:54 PM 39.2 °F 32.5 °F 33.8 °F 81% 29.87 in 10.0 mi SSW 10.4 mph - N/A   Clear
1:15 PM 39.2 °F 33.0 °F 33.8 °F 81% 29.86 in 10.0 mi SSW 9.2 mph - N/A   Clear
1:34 PM 39.2 °F 33.0 °F 35.6 °F 87% 29.85 in 10.0 mi SSW 9.2 mph - N/A   Clear
1:54 PM 39.2 °F 33.6 °F 35.6 °F 87% 29.85 in 10.0 mi SW 8.1 mph - N/A   Clear
2:14 PM 41.0 °F 35.2 °F 35.6 °F 81% 29.85 in 10.0 mi SW 9.2 mph - N/A   Clear
2:34 PM 42.8 °F 38.0 °F 37.4 °F 81% 29.84 in 10.0 mi SW 8.1 mph - N/A   Clear
2:55 PM 42.8 °F 38.0 °F 37.4 °F 81% 29.84 in 10.0 mi SW 8.1 mph - N/A   Clear
3:14 PM 42.8 °F 39.3 °F 37.4 °F 81% 29.83 in 10.0 mi SW 5.8 mph - N/A   Clear
3:34 PM 44.6 °F 41.4 °F 37.4 °F 76% 29.83 in 10.0 mi SW 5.8 mph - N/A   Clear
3:55 PM 44.6 °F 42.2 °F 39.2 °F 81% 29.83 in 10.0 mi WSW 4.6 mph - N/A   Clear
4:14 PM 44.6 °F 42.2 °F 37.4 °F 76% 29.83 in 10.0 mi NW 4.6 mph - N/A   Clear
4:35 PM 42.8 °F 39.3 °F 37.4 °F 81% 29.82 in 10.0 mi NNW 5.8 mph - N/A   Clear
4:54 PM 42.8 °F 38.0 °F 37.4 °F 81% 29.83 in 10.0 mi North 8.1 mph - N/A   Mostly Cloudy
5:15 PM 41.0 °F 35.8 °F 35.6 °F 81% 29.83 in 10.0 mi North 8.1 mph - N/A   Overcast
5:34 PM 41.0 °F 35.8 °F 35.6 °F 81% 29.83 in 10.0 mi North 8.1 mph - N/A   Overcast
5:54 PM 41.0 °F 35.2 °F 35.6 °F 81% 29.83 in 10.0 mi NNW 9.2 mph - N/A   Scattered Clouds
6:15 PM 39.2 °F 33.0 °F 35.6 °F 87% 29.84 in 10.0 mi North 9.2 mph - N/A   Clear
6:34 PM 39.2 °F 33.6 °F 33.8 °F 81% 29.84 in 10.0 mi North 8.1 mph - N/A   Clear
6:54 PM 39.2 °F 33.6 °F 33.8 °F 81% 29.84 in 10.0 mi North 8.1 mph - N/A   Clear
7:15 PM 37.4 °F 32.1 °F 32.0 °F 81% 29.85 in 10.0 mi North 6.9 mph - N/A   Clear
7:34 PM 37.4 °F 33.8 °F 32.0 °F 81% 29.85 in 10.0 mi North 4.6 mph - N/A   Clear
7:54 PM 35.6 °F 31.7 °F 32.0 °F 87% 29.85 in 10.0 mi NNE 4.6 mph - N/A   Clear
8:15 PM 37.4 °F 34.9 °F 30.2 °F 75% 29.85 in 10.0 mi NNE 3.5 mph - N/A   Clear
8:34 PM 35.6 °F - 30.2 °F 81% 29.86 in 10.0 mi Calm Calm - N/A   Clear
8:54 PM 33.8 °F 30.8 °F 30.2 °F 87% 29.87 in 10.0 mi NNE 3.5 mph - N/A   Clear
9:15 PM 33.8 °F 27.7 °F 30.2 °F 87% 29.87 in 10.0 mi NNE 6.9 mph - N/A   Scattered Clouds
9:34 PM 35.6 °F 31.7 °F 30.2 °F 81% 29.86 in 10.0 mi ENE 4.6 mph - N/A   Mostly Cloudy
9:54 PM 35.6 °F 28.6 °F 30.2 °F 81% 29.85 in 10.0 mi East 9.2 mph - N/A   Mostly Cloudy
10:15 PM 35.6 °F 29.9 °F 30.2 °F 81% 29.85 in 10.0 mi East 6.9 mph - N/A   Scattered Clouds
10:34 PM 35.6 °F 28.0 °F 30.2 °F 81% 29.85 in 10.0 mi ESE 10.4 mph - N/A   Scattered Clouds
10:54 PM 37.4 °F 34.9 °F 30.2 °F 75% 29.86 in 10.0 mi ESE 3.5 mph - N/A   Scattered Clouds
11:15 PM 35.6 °F 29.9 °F 30.2 °F 81% 29.88 in 10.0 mi North 6.9 mph - N/A   Mostly Cloudy
11:34 PM 35.6 °F 30.7 °F 30.2 °F 81% 29.88 in 10.0 mi NE 5.8 mph - N/A   Mostly Cloudy
11:55 PM 33.8 °F 29.6 °F 30.2 °F 87% 29.87 in 10.0 mi NE 4.6 mph - N/A   Scattered Clouds